Theta_e
333 336 336 338 340 339 339 340 341 342 343 342 343 343 344 347 350 350 351 346 349 352 350 350 348 349 346 346 346 345 341 343 341 338 338 339 340 343 343 344 345 346 347
332 333 334 335 338 339 339 340 341 341 344 342 344 345 344 347 348 350 350 354 355 352 349 350 349 349 347 348 347 346 343 344 340 337 335 331 334 335 337 341 342 344 346
332 329 331 333 338 338 339 340 342 341 345 342 343 343 345 346 346 348 348 352 353 354 354 352 349 346 348 345 346 346 345 339 342 340 338 331 328 330 337 339 339 342 342
332 329 330 333 337 339 341 342 342 341 344 342 342 343 341 341 344 346 349 351 356 352 352 353 350 347 349 347 347 348 346 343 340 341 337 339 336 333 332 337 339 341 341
331 329 330 333 338 340 340 342 343 342 343 343 342 342 341 342 346 346 348 350 353 354 352 353 352 350 349 350 351 349 349 346 344 343 337 338 338 336 334 334 337 342 343
334 331 332 333 338 340 340 341 340 340 341 343 340 340 341 341 342 345 345 347 350 353 351 352 352 352 351 349 350 352 350 349 351 349 343 338 339 337 336 334 335 336 342
334 333 330 331 336 338 339 340 340 339 340 341 341 339 341 342 343 343 345 345 347 350 352 352 351 352 352 351 352 352 351 351 351 352 346 347 347 344 339 336 335 335 339
334 334 332 332 334 337 338 339 339 339 340 341 341 339 340 342 342 344 345 346 347 350 353 351 352 353 353 353 352 352 352 353 351 351 353 350 349 349 344 340 338 337 334
332 334 335 332 333 337 338 339 340 340 341 341 341 339 338 340 341 344 345 347 349 351 353 352 350 354 354 352 353 351 352 353 353 353 351 350 350 350 348 347 341 339 335
329 334 335 335 333 336 338 340 341 340 341 342 342 341 339 339 341 343 345 346 348 350 352 352 352 352 354 352 352 352 352 351 351 352 352 351 351 352 351 350 346 341 340
329 330 334 337 336 337 337 339 340 341 341 342 343 343 341 340 339 341 345 348 349 349 348 351 352 352 353 353 351 351 351 350 351 351 351 351 351 352 352 351 350 348 344
326 328 332 336 337 336 337 337 340 341 341 342 343 343 343 343 341 340 342 345 347 349 349 348 350 353 352 353 352 351 353 351 350 351 351 350 350 352 353 352 352 350 349
323 326 326 329 333 336 337 337 339 342 341 342 341 342 341 341 343 343 342 342 345 346 348 349 349 350 352 353 353 352 352 352 351 352 351 353 353 351 351 352 352 353 353
319 322 324 325 327 329 337 339 340 341 343 342 341 340 340 339 341 343 344 342 344 345 346 350 350 351 352 353 353 352 351 351 351 352 352 353 353 352 353 353 353 353 352
315 317 320 323 323 324 327 332 339 341 342 341 342 341 341 341 341 341 342 345 344 344 346 347 351 352 352 351 352 352 352 352 351 352 352 353 352 346 349 354 356 354 352
314 316 317 320 323 322 323 326 329 338 340 342 341 344 344 343 340 340 341 343 345 345 344 344 346 349 351 340 338 348 352 352 352 351 352 353 348 347 339 338 340 349 354
313 314 315 317 321 322 322 321 323 329 340 340 343 343 344 343 342 340 339 339 342 344 344 345 346 346 349 334 334 339 352 351 351 351 351 350 351 347 354 343 337 336 335
307 314 314 315 317 323 323 321 321 323 325 332 341 345 345 343 343 343 339 338 339 342 342 344 346 347 348 332 331 335 349 351 351 351 352 351 352 352 352 353 352 353 353
306 308 316 316 317 318 323 321 319 319 319 321 325 330 337 343 344 343 343 342 339 339 341 342 343 345 345 328 328 333 347 349 350 351 352 352 352 341 332 350 350 351 351
304 306 309 314 316 316 320 320 318 317 316 319 321 325 330 334 338 345 344 345 345 343 341 341 341 335 344 328 325 331 348 348 349 353 354 334 347 332 326 348 351 349 351
303 304 305 307 314 316 318 318 318 315 318 319 321 323 327 331 337 338 340 346 346 346 345 344 344 342 337 339 321 321 349 347 347 348 348 351 327 322 319 324 351 348 350
302 302 302 303 310 315 317 317 315 316 318 318 319 321 324 330 334 336 338 339 347 346 345 345 345 347 345 326 323 318 323 337 346 346 349 350 323 318 317 320 326 325 327
299 301 301 301 304 312 316 316 317 315 315 316 317 319 322 327 329 330 333 335 342 345 345 344 345 346 349 348 321 317 318 322 343 351 343 332 320 317 319 317 321 320 334
296 298 299 300 300 305 312 317 317 314 313 313 314 316 318 320 326 329 332 334 339 345 346 345 345 347 349 351 352 337 327 321 328 335 343 338 334 328 335 333 329 334 339
297 297 298 298 299 302 305 312 316 313 311 311 313 315 316 317 322 326 329 331 335 342 347 348 348 348 347 349 340 341 345 344 336 338 345 347 347 348 348 347 347 345 343
297 297 297 298 299 301 304 309 314 311 309 309 311 312 312 315 319 323 325 318 312 310 309 315 333 349 330 319 310 310 311 314 311 336 345 345 346 345 346 346 348 348 344
Wind_Speed
13 13 13 13 12 8 7 8 8 7 6 2 3 2 3 2 1 3 4 4 4 5 4 3 4 3 3 3 2 1 2 2 2 1 1 2 3 5 5 4 5 6 8
12 13 13 12 13 14 13 9 9 7 8 4 2 3 3 2 2 2 2 3 2 3 5 4 3 3 3 3 4 3 2 0 1 1 1 3 3 2 4 3 5 7 6
16 12 13 14 14 13 13 12 12 10 8 6 4 3 4 3 2 2 2 3 3 3 4 4 4 4 3 3 3 3 3 2 1 0 3 1 2 3 2 2 3 5 5
11 12 14 14 15 15 13 13 11 10 8 7 5 6 5 4 3 3 3 3 3 4 3 3 3 4 3 4 3 2 2 2 1 1 1 1 1 1 4 2 2 3 5
10 16 18 18 16 14 14 13 11 9 9 9 7 5 5 3 2 2 3 3 2 2 3 3 3 4 3 3 3 2 2 1 2 1 1 0 0 1 1 2 4 2 2
11 15 16 15 15 14 13 11 11 10 8 11 8 8 9 6 4 3 3 3 2 2 3 3 3 3 4 4 3 2 2 2 2 1 1 1 0 0 0 1 2 2 3
14 10 17 17 16 17 16 13 12 11 9 12 10 8 9 9 8 6 4 4 3 2 4 4 4 3 3 4 3 3 3 3 2 1 0 0 0 1 1 0 1 2 2
17 17 16 18 18 18 17 17 15 13 11 10 11 8 8 6 6 6 4 4 5 4 5 5 4 4 4 3 3 2 2 2 3 3 2 0 1 0 1 1 0 2 2
19 19 17 17 17 18 19 18 16 15 12 13 9 7 7 7 8 7 5 4 4 4 4 5 6 6 4 4 4 3 3 3 2 3 2 1 2 2 1 1 1 1 2
11 12 12 14 15 17 16 16 15 18 16 15 12 11 11 8 7 6 7 6 6 5 5 6 6 5 6 5 4 4 3 3 2 2 3 2 1 2 2 1 1 2 2
15 2 3 7 5 7 13 14 15 16 14 14 12 10 9 9 8 9 9 7 5 6 6 7 7 7 7 6 5 5 4 5 4 3 3 4 3 3 2 2 1 2 2
18 17 15 10 4 5 6 10 11 13 13 12 12 12 10 9 9 9 9 9 9 5 6 6 7 7 7 7 8 7 6 6 6 6 4 6 3 4 3 3 4 3 3
19 17 17 15 12 7 4 4 5 8 9 9 10 8 8 9 12 11 9 8 9 8 7 6 7 8 8 8 9 9 8 7 7 6 6 6 4 5 4 4 4 3 3
16 15 15 15 14 13 9 5 2 4 5 9 10 10 11 12 11 10 10 10 9 9 9 8 8 8 8 9 9 9 9 8 7 7 7 7 7 7 6 5 6 4 4
17 15 14 12 12 13 12 10 6 3 6 6 10 13 11 10 9 8 9 10 10 11 9 8 8 8 8 8 9 9 10 9 8 8 7 8 8 9 8 5 5 5 4
14 13 13 12 12 12 10 9 9 7 4 8 10 8 9 8 9 9 9 9 11 11 9 10 10 10 8 11 14 11 10 10 9 9 8 8 8 10 11 11 12 8 6
11 11 12 11 10 9 9 11 11 12 5 6 8 8 8 8 10 10 9 10 11 10 11 11 10 11 11 14 15 16 9 9 9 9 8 7 7 9 8 10 11 11 13
13 10 9 10 10 8 9 7 9 10 11 11 5 7 9 11 9 8 10 10 9 10 11 12 13 12 11 13 16 17 12 9 10 10 10 10 9 9 9 8 9 9 9
8 10 10 9 9 10 7 6 7 8 9 11 11 10 8 6 11 10 10 9 8 9 10 10 12 14 15 16 18 13 11 11 12 10 11 11 11 11 13 9 10 9 11
10 9 12 13 9 10 9 6 5 6 8 8 8 9 9 9 7 5 9 9 9 11 9 11 11 14 15 15 18 16 11 11 10 9 10 15 14 13 13 11 9 10 12
13 14 10 10 12 11 8 9 6 4 5 6 7 8 9 10 8 8 6 7 11 11 11 11 11 12 13 14 17 19 13 12 11 10 10 9 15 16 13 15 10 14 10
13 14 13 10 10 12 8 8 10 7 6 5 7 6 9 12 7 7 8 9 10 11 12 12 10 9 12 16 16 19 21 16 13 11 9 9 12 15 15 12 16 17 10
12 12 13 15 11 9 9 10 10 8 8 5 2 7 6 13 7 8 6 9 10 9 8 9 10 10 9 11 18 18 20 20 13 11 11 11 14 16 12 16 16 12 7
13 12 13 15 17 9 8 11 11 8 8 7 6 5 5 8 8 5 6 6 8 7 8 10 11 10 9 10 9 10 9 16 12 13 9 9 9 10 9 7 9 8 8
13 11 11 14 19 15 13 10 7 8 9 6 7 8 5 10 9 6 5 7 8 9 10 11 11 11 11 13 13 12 11 11 13 10 9 9 9 10 9 9 9 8 8
16 15 13 14 17 16 15 13 6 5 6 8 5 7 7 8 7 6 8 10 14 19 15 16 14 11 14 10 13 14 13 15 13 5 9 10 10 11 11 11 10 9 10
Wind_Direction
186 185 189 182 177 163 175 192 173 171 148 142 138 143 174 170 183 166 188 207 186 167 163 163 149 161 141 130 126 118 214 291 45 356 330 311 270 251 248 251 251 254 255
186 192 189 186 184 181 182 190 196 179 172 161 166 155 142 134 120 124 187 223 208 143 145 157 165 175 144 158 177 190 161 266 142 119 74 357 331 306 258 255 255 261 265
194 192 188 189 188 190 183 191 197 184 183 164 130 81 81 70 76 136 185 200 185 170 152 164 156 154 158 161 166 191 140 167 60 84 124 50 277 318 326 303 262 264 267
189 190 191 194 192 198 192 188 197 187 176 163 169 151 158 149 189 181 163 182 190 160 153 173 176 163 154 160 186 167 144 143 95 41 74 141 186 319 333 319 320 281 268
185 196 191 195 194 189 190 191 191 196 171 177 185 157 150 148 146 149 176 161 201 192 180 164 190 167 169 180 186 181 147 127 140 151 84 14 86 72 131 321 327 320 308
201 194 197 187 194 191 183 185 181 201 174 177 183 179 168 160 152 160 181 188 184 178 194 195 206 206 175 175 194 193 190 149 110 104 150 175 177 253 32 346 319 298 308
218 199 189 190 191 189 187 184 182 193 191 182 184 192 182 166 175 177 181 173 171 190 213 176 199 210 199 188 174 178 194 180 147 144 237 162 298 126 111 91 338 322 319
197 198 196 193 191 191 188 187 187 197 184 190 197 190 183 184 178 177 177 189 194 197 170 182 201 209 197 208 196 187 210 211 196 193 193 251 272 246 130 256 112 322 330
212 202 190 192 187 191 192 190 187 194 192 191 186 188 188 183 190 187 179 187 186 185 184 182 189 190 200 196 191 213 227 213 215 223 208 225 273 255 251 220 191 142 330
225 204 203 193 188 193 194 193 195 192 192 194 190 190 194 195 191 176 190 190 199 192 178 194 197 195 191 202 198 201 221 228 231 226 225 221 246 267 257 259 219 179 183
22 11 176 161 182 183 190 197 198 193 194 194 197 192 188 192 187 193 194 193 194 198 192 192 198 201 196 193 200 214 208 215 238 237 231 243 237 256 257 247 244 225 188
33 34 33 31 71 168 179 191 201 202 199 200 196 198 189 185 195 201 203 186 195 192 200 191 192 197 204 194 204 218 216 213 222 233 230 248 231 249 253 254 250 242 211
31 34 31 28 23 17 36 164 170 199 191 188 197 194 192 195 205 201 200 194 195 199 199 190 197 193 200 201 209 214 214 214 220 224 227 244 226 251 249 247 258 254 249
36 29 29 25 19 14 14 26 212 194 192 190 194 198 201 198 206 211 199 197 201 204 205 200 199 204 201 204 207 210 213 216 224 225 224 236 230 237 247 247 247 257 266
31 30 22 21 23 12 2 5 5 301 222 214 208 211 209 209 204 197 200 209 201 212 212 210 206 200 197 206 200 204 210 211 222 229 231 237 235 227 235 248 255 242 259
18 12 16 7 16 19 1 356 357 329 303 234 224 225 214 199 201 203 204 191 209 213 205 207 215 213 211 200 194 196 208 211 213 225 229 233 234 242 240 238 242 242 245
7 10 0 354 349 4 18 356 356 349 313 284 235 220 220 219 208 204 202 207 201 205 211 215 206 220 223 203 201 200 210 211 216 218 223 232 236 225 241 243 243 243 232
352 348 354 345 344 341 357 19 357 9 7 6 319 227 225 231 229 207 208 210 213 206 209 214 215 218 222 210 210 204 213 215 219 219 219 223 235 223 222 240 252 252 249
342 336 330 335 329 341 339 354 6 360 21 4 354 345 334 259 221 217 219 217 217 219 218 213 213 215 230 208 209 199 215 223 225 220 221 220 232 229 209 229 250 257 261
329 331 334 329 332 331 340 331 7 347 7 2 343 321 312 299 290 242 225 228 227 225 222 224 214 217 226 213 210 200 218 225 227 224 226 214 226 218 202 216 237 253 260
317 325 327 327 320 321 331 317 311 345 300 343 339 331 324 282 267 255 254 248 228 224 223 224 220 215 218 225 208 199 213 224 227 230 232 230 211 225 213 211 227 238 258
317 319 316 315 317 310 317 316 303 305 302 335 344 334 318 293 284 263 247 257 243 226 226 225 229 220 219 219 212 203 207 216 225 227 230 234 206 214 219 210 230 242 247
307 310 304 303 303 300 297 296 291 300 299 274 254 313 310 288 293 276 242 251 251 234 231 228 225 226 218 221 214 202 204 218 223 230 227 210 208 216 220 220 228 230 228
299 297 294 293 296 295 292 279 286 289 301 309 304 250 247 263 252 259 242 264 242 240 231 230 232 224 217 218 216 206 206 222 216 236 232 220 213 207 224 223 226 227 224
295 286 281 286 285 294 287 279 241 281 296 299 315 311 304 287 303 303 270 263 272 267 237 230 227 215 215 218 206 195 194 205 208 199 226 231 224 235 234 234 235 224 219
293 287 275 273 277 281 285 290 246 234 263 297 310 300 296 288 303 300 314 287 278 295 270 238 223 222 227 192 203 209 199 197 152 187 219 223 226 234 238 240 241 229 223